カタログに戻る

STARLINK-4119

運用中通信VLEO
NORAD 53026·PAYLOAD·🇺🇸 United States

打ち上げ Jul 7, 2022 から Cape Canaveral Space Force Station

Loading…

次のパス (今後24時間)

TLE

最新Source: CelesTrak SupGP

元期: Sep 15, 2026, 02:18 UTC

1 53026C 22076AS  26258.09631944  .00024731  00000+0  79514-3 0  2585
2 53026  53.1571 299.3902 0001071 106.0866  35.8107 15.31695835    11

AllMySatでSTARLINK-4119をリアルタイム追跡

Download on the App Store